Starlink 3859

operational
NORAD ID: 52470 Int'l Des: 2022-049 Owner: SPXS Country: US Constellation: starlink
LEOCIRCULAR

Starlink 3859について

説明を読み込み中...

リアルタイム位置

3D地球を読み込み中...

次回通過

高度履歴

Altitude vs Time

uPlot chart will show altitude changes over time

軌道要素

1 52470U 22049V 25351.50523823 -.00000389 00000-0 -63730-5 0 9995
2 52470 53.2179 68.0613 0001366 82.6947 277.4200 15.08834285199840
Epoch: Dec 17, 2025 • Age: 24 hours

現在のステータス

高度 545.4 km
速度 7.60 km/s
衛星直下点 53.32°N, 116.08°W
打ち上げ日 May 6, 2022
運用期間 3.6 years
タイプ internet

技術仕様

分類 Payload
質量 297.00 kg
乾燥質量 220.00 kg
総質量 297.00 kg
長さ 0.20 m
直径 2.80 m
スパン 9.00 m
形状 Box + pan
製造者 SPXS
バスタイプ Starlink
フェーズステータス In Orbit
所有者/国 SPXS/US

大規模コンステレーション

Loading constellations...